Weather History for Clarinda, IA

Change the Weather History Date:

Thursday, December 20, 2012

  Actual Average Record
Temperature  
Mean Temperature 24 °F -  
Max Temperature 32 °F 33 °F 55 °F (2001)
Min Temperature 17 °F 15 °F -5 °F (1999)
Degree Days  
Heating Degree Days 40    
Moisture  
Dew Point 17 °F    
Average Humidity 79    
Maximum Humidity 93    
Minimum Humidity 68    
Precipitation  
Precipitation 0.01 in - - ()
Sea Level Pressure  
Sea Level Pressure 29.90 in    
Wind  
Wind Speed 21 mph (NW)    
Max Wind Speed 36 mph    
Max Gust Speed 46 mph    
Visibility 6 miles    
Events Snow    
Averages and records for this station are not official NWS values.
T = Trace of Precipitation, MM = Missing Value Source: NWS Daily Summary

Daily Weather History Graph

Daily Weather History Graph

Search for Another Location

Airport:

Trip Planner

Search our weather history database for the weather conditions in past years. The results will help you decide how hot, cold, wet, or windy it might be!

Date:

Astronomy

Dec. 20, 2012 Rise Set
Actual Time 7:40 AM CST 4:55 PM CST
Civil Twilight 7:09 AM CST 5:26 PM CST
Nautical Twilight 6:34 AM CST 6:01 PM CST
Astronomical Twilight 6:01 AM CST 6:34 PM CST
Moon 12:15 PM CST (12/20) 12:26 AM CST (12/20)
Length of Visible Light 10h 17m
Length of Day
9h 15m
First Quarter, 55% of the Moon is Illuminated
Dec 20
First Quarter
Dec 28
Full
Jan 4
Last Quarter
Jan 11
New
Jan 18
First Quarter

Hourly Weather History & Observations

Time (CST) Temp. Windchill Dew Point Humidity Pressure Visibility Wind Dir Wind Speed Gust Speed Precip Events Conditions
12:15 AM 32.0 °F 19.8 °F 28.4 °F 87% 29.62 in 2.0 mi North 20.7 mph - N/A Snow Light Snow
12:35 AM 32.0 °F 19.5 °F 28.4 °F 87% 29.61 in 1.0 mi North 21.9 mph 26.5 mph N/A Snow Light Snow
12:55 AM 30.2 °F 17.1 °F 28.4 °F 93% 29.61 in 1.0 mi North 21.9 mph 27.6 mph N/A Snow Snow
1:15 AM 30.2 °F 17.8 °F 28.4 °F 93% 29.61 in 1.8 mi North 19.6 mph 31.1 mph 0.01 in Snow Light Snow
1:35 AM 30.2 °F 16.5 °F 26.6 °F 86% 29.60 in 1.2 mi North 24.2 mph 34.5 mph 0.01 in Snow Light Snow
2:15 AM 28.4 °F 13.0 °F 24.8 °F 86% 29.59 in 1.2 mi North 28.8 mph 36.8 mph N/A Snow Light Snow
2:35 AM 28.4 °F 13.3 °F 24.8 °F 86% 29.58 in 1.0 mi North 27.6 mph 39.1 mph N/A Snow Light Snow
2:55 AM 28.4 °F 11.6 °F 24.8 °F 86% 29.57 in 1.2 mi North 35.7 mph 43.7 mph N/A Snow Light Snow
3:15 AM 28.4 °F 12.0 °F 24.8 °F 86% 29.57 in 1.2 mi North 33.4 mph 46.0 mph N/A Snow Light Snow
3:35 AM 28.4 °F 13.3 °F 24.8 °F 86% 29.59 in 1.0 mi North 27.6 mph 40.3 mph N/A Snow Light Snow
3:55 AM 26.6 °F 9.8 °F 24.8 °F 93% 29.60 in 0.5 mi North 32.2 mph 39.1 mph N/A Snow Snow
4:15 AM 26.6 °F 11.1 °F 23.0 °F 86% 29.62 in 0.8 mi North 26.5 mph 38.0 mph N/A Snow Snow
4:35 AM 26.6 °F 11.4 °F 21.2 °F 80% 29.64 in - NNW 25.3 mph 38.0 mph N/A   Unknown
4:55 AM 26.6 °F 11.4 °F 21.2 °F 80% 29.65 in - North 25.3 mph 33.4 mph N/A   Overcast
5:15 AM 24.8 °F 9.6 °F 21.2 °F 86% 29.66 in 1.0 mi NNW 23.0 mph 32.2 mph N/A Snow Light Snow
5:35 AM 24.8 °F 9.0 °F 21.2 °F 86% 29.67 in 1.2 mi NNW 25.3 mph 36.8 mph N/A Snow Light Snow
5:55 AM 23.0 °F 6.0 °F 19.4 °F 86% 29.69 in 1.2 mi NNW 27.6 mph 34.5 mph N/A Snow Light Snow
6:15 AM 23.0 °F 5.7 °F 19.4 °F 86% 29.71 in 1.0 mi NNW 28.8 mph 36.8 mph N/A Snow Light Snow
6:35 AM 21.2 °F 4.9 °F 17.6 °F 86% 29.73 in 1.2 mi NNW 23.0 mph 36.8 mph N/A Snow Light Snow
6:55 AM 21.2 °F 4.5 °F 17.6 °F 86% 29.74 in 1.0 mi NNW 24.2 mph 38.0 mph N/A Snow Light Snow
7:15 AM 21.2 °F 5.6 °F 17.6 °F 86% 29.76 in 1.2 mi NNW 20.7 mph 34.5 mph N/A Snow Light Snow
7:35 AM 21.2 °F 4.5 °F 17.6 °F 86% 29.78 in 1.2 mi NNW 24.2 mph 32.2 mph N/A Snow Light Snow
7:55 AM 21.2 °F 6.0 °F 17.6 °F 86% 29.80 in 1.2 mi NW 19.6 mph 33.4 mph N/A Snow Light Snow
8:15 AM 21.2 °F 4.9 °F 17.6 °F 86% 29.81 in 1.5 mi NW 23.0 mph 38.0 mph N/A Snow Light Snow
8:35 AM 21.2 °F 6.0 °F 17.6 °F 86% 29.82 in 1.8 mi NW 19.6 mph 31.1 mph N/A Snow Light Snow
8:55 AM 21.2 °F 5.6 °F 17.6 °F 86% 29.83 in 1.8 mi NNW 20.7 mph 31.1 mph N/A Snow Light Snow
9:15 AM 21.2 °F 5.6 °F 17.6 °F 86% 29.84 in 3.0 mi NNW 20.7 mph 31.1 mph N/A Snow Light Snow
9:35 AM 21.2 °F 6.4 °F 17.6 °F 86% 29.85 in 4.0 mi NW 18.4 mph 29.9 mph N/A   Haze
9:55 AM 21.2 °F 4.2 °F 15.8 °F 80% 29.87 in 2.0 mi NW 25.3 mph 34.5 mph N/A Snow Light Snow
10:15 AM 21.2 °F 6.8 °F 15.8 °F 80% 29.89 in 3.0 mi NW 17.3 mph 29.9 mph N/A   Haze
10:35 AM 21.2 °F 5.2 °F 15.8 °F 80% 29.90 in 4.0 mi NW 21.9 mph 32.2 mph N/A   Haze
10:55 AM 21.2 °F 6.8 °F 15.8 °F 80% 29.91 in 2.5 mi NW 17.3 mph 34.5 mph N/A Snow Light Snow
11:15 AM 21.2 °F 5.6 °F 15.8 °F 80% 29.92 in 4.0 mi NW 20.7 mph 31.1 mph N/A   Haze
11:35 AM 21.2 °F 4.5 °F 15.8 °F 80% 29.92 in 2.0 mi NW 24.2 mph 32.2 mph N/A   Haze
11:55 AM 23.0 °F 6.6 °F 17.6 °F 80% 29.92 in 2.5 mi NW 25.3 mph 40.3 mph N/A   Haze
12:15 PM 23.0 °F 6.0 °F 15.8 °F 74% 29.93 in 2.5 mi NW 27.6 mph 35.7 mph N/A   Haze
12:35 PM 23.0 °F 7.6 °F 15.8 °F 74% 29.93 in 2.5 mi NW 21.9 mph 35.7 mph N/A   Haze
12:55 PM 23.0 °F 6.9 °F 15.8 °F 74% 29.94 in 4.0 mi NW 24.2 mph 36.8 mph N/A   Haze
1:15 PM 21.2 °F 6.0 °F 15.8 °F 80% 29.95 in 4.0 mi NW 19.6 mph 38.0 mph N/A   Haze
1:35 PM 21.2 °F 7.3 °F 15.8 °F 80% 29.96 in 10.0 mi NW 16.1 mph 31.1 mph N/A   Mostly Cloudy
1:55 PM 21.2 °F 3.9 °F 15.8 °F 80% 29.97 in 10.0 mi NW 26.5 mph 39.1 mph N/A   Scattered Clouds
2:15 PM 23.0 °F 5.7 °F 15.8 °F 74% 29.97 in 10.0 mi NW 28.8 mph 41.4 mph N/A   Scattered Clouds
2:35 PM 23.0 °F 6.9 °F 15.8 °F 74% 29.99 in 10.0 mi NW 24.2 mph 34.5 mph N/A   Clear
2:55 PM 23.0 °F 8.7 °F 15.8 °F 74% 30.00 in 10.0 mi NW 18.4 mph 29.9 mph N/A   Clear
3:15 PM 23.0 °F 9.2 °F 14.0 °F 68% 30.02 in 10.0 mi NW 17.3 mph 28.8 mph N/A   Clear
3:35 PM 23.0 °F 8.3 °F 15.8 °F 74% 30.03 in 10.0 mi WNW 19.6 mph 27.6 mph N/A   Clear
3:55 PM 21.2 °F 6.4 °F 14.0 °F 74% 30.04 in 10.0 mi NW 18.4 mph 25.3 mph N/A   Clear
4:15 PM 21.2 °F 6.8 °F 12.2 °F 68% 30.06 in 10.0 mi NW 17.3 mph 28.8 mph N/A   Clear
4:35 PM 21.2 °F 9.5 °F 14.0 °F 74% 30.07 in 10.0 mi WNW 11.5 mph - N/A   Clear
4:55 PM 19.4 °F 8.6 °F 12.2 °F 74% 30.08 in 10.0 mi WNW 9.2 mph - N/A   Clear
5:15 PM 19.4 °F 9.5 °F 12.2 °F 74% 30.09 in 10.0 mi NW 8.1 mph 17.3 mph N/A   Clear
5:35 PM 19.4 °F 7.2 °F 12.2 °F 74% 30.09 in 10.0 mi NW 11.5 mph 19.6 mph N/A   Clear
5:55 PM 19.4 °F 6.0 °F 12.2 °F 74% 30.10 in 10.0 mi WNW 13.8 mph 18.4 mph N/A   Clear
6:15 PM 19.4 °F 6.0 °F 12.2 °F 74% 30.10 in 10.0 mi WNW 13.8 mph 19.6 mph N/A   Clear
6:35 PM 19.4 °F 6.0 °F 12.2 °F 74% 30.11 in 10.0 mi WNW 13.8 mph - N/A   Clear
6:55 PM 19.4 °F 8.6 °F 12.2 °F 74% 30.12 in 10.0 mi WNW 9.2 mph 18.4 mph N/A   Clear
7:15 PM 19.4 °F 6.0 °F 12.2 °F 74% 30.12 in 10.0 mi NW 13.8 mph 19.6 mph N/A   Clear
7:35 PM 19.4 °F 6.6 °F 12.2 °F 74% 30.13 in 10.0 mi WNW 12.7 mph 17.3 mph N/A   Clear
8:15 PM 19.4 °F 8.6 °F 10.4 °F 68% 30.14 in 10.0 mi WNW 9.2 mph - N/A   Clear
8:35 PM 19.4 °F 7.9 °F 10.4 °F 68% 30.14 in 10.0 mi NW 10.4 mph - N/A   Clear
8:55 PM 19.4 °F 9.5 °F 10.4 °F 68% 30.14 in 10.0 mi NW 8.1 mph - N/A   Clear
9:15 PM 19.4 °F 7.9 °F 10.4 °F 68% 30.14 in 10.0 mi NW 10.4 mph 16.1 mph N/A   Clear
9:35 PM 19.4 °F 8.6 °F 10.4 °F 68% 30.15 in 10.0 mi WNW 9.2 mph - N/A   Clear
9:55 PM 19.4 °F 6.6 °F 10.4 °F 68% 30.15 in 10.0 mi WNW 12.7 mph - N/A   Clear
10:15 PM 19.4 °F 7.9 °F 10.4 °F 68% 30.16 in 10.0 mi WNW 10.4 mph - N/A   Clear
10:35 PM 17.6 °F 5.7 °F 10.4 °F 73% 30.17 in 10.0 mi WNW 10.4 mph - N/A   Clear
10:55 PM 17.6 °F 6.4 °F 10.4 °F 73% 30.17 in 10.0 mi WNW 9.2 mph - N/A   Clear
11:15 PM 17.6 °F 5.7 °F 10.4 °F 73% 30.19 in 10.0 mi West 10.4 mph - N/A   Clear
11:35 PM 17.6 °F 5.7 °F 10.4 °F 73% 30.19 in 10.0 mi West 10.4 mph - N/A   Clear
11:55 PM 17.6 °F 5.0 °F 10.4 °F 73% 30.19 in 10.0 mi WNW 11.5 mph - N/A   Clear